Regional Weather Roundup
Issued by NWS Upton, NY

Current Version | Previous Version | Graphics & Text | Print | Product List | Glossary Off
Versions: 1 2 3 4 5 6 7 8 9 10 11 12 13 14 15 16 17 18 19 20 21 22 23 24 25 26 27 28 29 30 31 32 33 34 35 36 37 38 39 40 41 42 43 44 45 46 47 48 49 50
149 ASUS41 KOKX 051604 RWROKX REGIONAL WEATHER ROUNDUP NATIONAL WEATHER SERVICE NEW YORK NY 1200 PM EDT THU MAY 05 2016 NOTE: "FAIR" INDICATES FEW OR NO CLOUDS BELOW 12,000 FEET WITH NO SIGNIFICANT WEATHER AND/OR OBSTRUCTIONS TO VISIBILITY. NYZ071-072-176-178-NJZ106-104-051700- NEW YORK CITY METRO AREA CITY SKY/WX TMP DP RH WIND PRES REMARKS CENTRAL PARK CLOUDY 52 41 66 NE10 29.72F LAGUARDIA APRT CLOUDY 53 44 71 E14 29.70S KENNEDY INTL CLOUDY 53 42 66 NE16 29.71S NEWARK/LIBERTY CLOUDY 52 43 71 N14 29.70F BRNX BOT. GARD N/A 52 41 66 NW8 29.70S TETERBORO CLOUDY 53 41 63 N12G17 29.69F $$ NYZ177-179-078>081-051700- LONG ISLAND NEW YORK CITY SKY/WX TMP DP RH WIND PRES REMARKS FARMINGDALE CLOUDY 51 42 71 NE13G23 29.70S ISLIP CLOUDY 50 42 74 N13G24 29.69S SHIRLEY CLOUDY 50 42 74 N12G25 29.70R RIVERHEAD N/A 48 45 87 NE3 29.69F WESTHAMPTON CLOUDY 46 43 89 N14G25 29.70S EAST HAMPTON CLOUDY 49 42 79 N14G20 29.68S MONTAUK POINT NOT AVBL $$ NYZ052-065-067-051700- HUDSON VALLEY CITY SKY/WX TMP DP RH WIND PRES REMARKS WHITE PLAINS CLOUDY 53 42 66 N12 29.69F NEWBURGH CLOUDY 52 45 76 NE12 29.72F MONTGOMERY CLOUDY 55 45 68 N18G24 29.71F POUGHKEEPSIE CLOUDY 55 43 63 N12G21 29.72F ALBANY CLOUDY 53 43 68 N9 29.78F $$ NJZ001-105-106-008-010-013-015-019>022-104-051700- NEW JERSEY CITY SKY/WX TMP DP RH WIND PRES REMARKS NEWARK/LIBERTY CLOUDY 52 43 71 N14 29.70F TETERBORO CLOUDY 53 41 63 N12G17 29.69F CALDWELL CLOUDY 53 30 41 E13G20 29.70F MORRISTOWN CLOUDY 54 45 71 N8G17 29.70F SOMERVILLE CLOUDY 55 44 66 NE9 29.67F SUSSEX CLOUDY 53 44 71 NE18G24 29.70F ANDOVER N/A 52 44 74 VRB5G18 29.70F TRENTON CLOUDY 52 44 74 NE12 29.68F MILLVILLE CLOUDY 51 45 79 NE9 29.66F ATLANTIC CITY CLOUDY 50 46 86 NE13 29.66F WRIGHTSTOWN CLOUDY 49 46 88 N14 29.66F TOMS RIVER CLOUDY 50 43 76 NE15 29.69S BELMAR CLOUDY 49 43 80 NE14 29.69F $$ PAZ047>061-062-071-051700- EASTERN PENNSYLVANIA CITY SKY/WX TMP DP RH WIND PRES REMARKS PHILADELPHIA CLOUDY 55 44 66 NE12 29.68F ALLENTOWN CLOUDY 55 44 66 E14 29.70F SCRANTON CLOUDY 53 43 68 NE10 29.71S $$ CTZ002-004>006-009-010-012-RIZ004-006-007-MAZ004-011-015-051700- SOUTHERN NEW ENGLAND IN CT CITY SKY/WX TMP DP RH WIND PRES REMARKS BRADLEY INTL CLOUDY 52 42 69 NE15G23 29.73S HARTFORD CLOUDY 53 42 66 NE18G26 29.73F DANBURY CLOUDY 51 41 68 NE16 29.72F WTRBRY/OXFORD CLOUDY 48 39 71 NE12G22 29.72F BRIDGEPORT CLOUDY 53 42 66 NE16G24 29.70F MERIDEN CLOUDY 52 41 66 NE15G24 29.72S NEW HAVEN CLOUDY 53 43 68 NE15G22 29.69F CHESTER CLOUDY 50 43 76 NE13G20 29.69F GROTON CLOUDY 50 48 93 NE14G29 29.69R WILLIMANTIC CLOUDY 51 41 68 NE14 29.73R IN RI CITY SKY/WX TMP DP RH WIND PRES REMARKS PROVIDENCE CLOUDY 47 41 80 NE21G32 29.73F BLOCK ISLAND CLOUDY 47 43 86 NE21G28 29.68F WESTERLY CLOUDY 50 41 71 N15G30 29.70R IN MA CITY SKY/WX TMP DP RH WIND PRES REMARKS BOSTON CLOUDY 46 42 86 NE20G25 29.78F WORCESTER CLOUDY 44 41 89 NE12G22 29.74F WESTFIELD CLOUDY 50 42 74 NE12G18 29.74F PROVINCETOWN CLOUDY 45 43 93 NE20G28 29.75S NANTUCKET HVY RAIN 46 45 96 N25G36 29.65F FOG $$ ANZ330-335-338-340-345-350-353-355-051700- COASTAL MARINE OBSERVATIONS STATION/POSITION TIME SKY/WX TEMP WIND PRES VSBY WAVE AIR SEA DIR/SP/G HT/PER (UTC) (F) (DEG/KT/KT) (MB) (MI) (FT/S) NY HARB ENTRANCE 1450 48 50 20/ 17/ 21 1004.7 5/ 7 20S FIRE ISLAND 1450 47 48 30/ 19/ 23 1004.3 6/ 7 GREAT SOUTH BAY 1500 49 53 10/ 16/ 21 N/A 23 SSW MONTAUK P 1550 46 46 30/ 23/ 31 1003.6 7/ 6 15 E BARNEGAT LI 1522 50 N/A 6/ 7 HUDSON CANYON 1450 47 48 1002.1 7/ 7 KINGS POINT 1500 50 53 1005.7 EXECUTION ROCKS NOT AVBL CENTRAL LI SOUND 1530 49 40/ 14/ 17 N/A 2/ 3 EASTERN LI SOUND 1500 49 47 30/ 17/ 25 N/A ROBBINS REEF 1500 50 30/ 13/ 19 1005.0 $$ >>>>>>>>>>>>>>>>>>>>>>>>>>>> KEY <<<<<<<<<<<<<<<<<<<<<<<<<<< > < > SKY/WX - SKY CONDITION/PRESENT WEATHER < > TMP - TEMPERATURE IN FAHRENHEIT < > DP - DEWPOINT IN FAHRENHEIT < > RH - RELATIVE HUMIDITY IN PERCENT < > WIND - DIRECTION AND SPEED IN MPH < > PRES - MEAN SEA LEVEL PRESSURE IN INCHES OF HG < > WCI - WIND CHILL INDEX < > VSB - VISIBILITY IN MILES < > HX - HEAT INDEX < > TC - TEMPERATURE IN CELSIUS < > VRB - VARIABLE WIND DIRECTION < > < >>>>>>>>>>>>>>>>>>>>>>>>>>>> KEY <<<<<<<<<<<<<<<<<<<<<<<<<<<

USA.gov is the U.S. government's official web portal to all federal, state and local government web resources and services.